Location: Devore Heights
(34.2372°N, 117.4156°W)
Time: 09:52:33
(UTC+00:00)

A-11 Canister half - Pass Details

Date: 16 September 2024
Orbit: 1515 x 1684 km, 47.2° (Epoch: 07 October)

Event Time Altitude Azimuth Distance (km) Brightness Sun altitude
Rises 23:46:22 0° 201° (SSW) 4,805 12.1 25.3°
Reaches altitude 10° 23:49:49 10° 193° (SSW) 3,796 11.5 24.6°
Maximum altitude 23:58:18 37° 131° (SE) 2,264 9.8 22.9°
Drops below altitude 10° 00:06:33 10° 68° (ENE) 3,702 10.5 21.2°
Sets 00:09:51 0° 60° (ENE) 4,674 11.0 20.6°
